Погода в Шелаево

Россия / Иркутская область     56°55′43″N   97°41′44″E
темп.,
°C
ветер,
м/с
пор.,
м/с
влажн.,
%
обл.,
%
осадки,
мм/ч
давл.,
гПа
погр.,
м
26 октября, вт
вт2623:00+8юз71677100 0.2 10101429
02:00+8зюз81767100 0.4 10091665
05:00+7з71767100 0.3 10101721
08:00+6зюз6147199 0.4 10131509
11:00+5зсз610705 0.1 10161072
14:00+5зсз3561100 0.1 1018867
17:00+5юз006412 0.0 101616
20:00+2вюв2478100 0.0 101575
27 октября, ср
ср2723:00+3вюв31179100 0.0 1010323
02:00+4ююв41376100 0.0 1006405
05:00+4ю41481100 0.0 1005424
08:00+9юз71749100 0.0 10051184
11:00+7зюз8215749 0.0 10092301
14:00+4з8175027 0.1 10142027
17:00+2з716495 0.0 10191864
20:00−1з613505 0.0 10221547
28 октября, чт
чт2823:00−2з410505 0.0 10241306
02:00−3зюз485058 0.0 1025984
05:00−3зюз3851100 0.0 1025949
08:00−2зюз385697 0.0 1026790
11:00−1зюз495374 0.0 10271214
14:00+1з5944100 0.0 10271840
17:000з37495 0.0 1029583
20:00−2юз1160100 0.0 103011
29 октября, пт
пт2923:00−2ю126290 0.0 103057
02:00−3ю236620 0.0 103088
05:00−4ююв23675 0.0 103050
08:00−4ююв256643 0.0 103098
11:000ю3646100 0.0 1029243
14:00+3ю364244 0.0 1027507
17:00+2ююв3756100 0.0 1026206
20:000ю2868100 0.0 1026160
30 октября, сб
сб3023:000ю2969100 0.0 1026192
02:00−1ю2979100 0.0 1025178
05:00−1ююз2988100 0.0 1025189
08:00−1ю288961 0.0 1025165
11:00+3ююз3107294 0.0 1024318
14:00+7ююз4116146 0.0 1021690
17:00+6ююз4106790 0.0 1020285
20:00+6ююз51370100 0.1 1019902